User: anonymous   Login
Location: Unspecified
(0.0000°N, 0.0000°E)
Time: 04:07:50
(UTC+00:00)
Language:

NATO 4A - Orbit

View from above orbital plane
View from above orbital plane
View from above satellite
View from above satellite

Ground track
Ground track

The orbit data is extracted from the following two-line orbital elements,

1 21047U 91001A   18343.92158722 -.00000177  00000-0  00000+0 0  9995
2 21047  13.2501  12.5923 0004341 240.9144 115.3244  0.98284378101164
Epoch (UTC): 09 December 2018 22:07:05
Eccentricity: 0.0004341
inclination: 13.2501°
perigee height: 36334 km
apogee height: 36371 km
right ascension of ascending node: 12.5923°
argument of perigee: 240.9144°
revolutions per day: 0.98284378
mean anomaly at epoch: 115.3244°
orbit number at epoch: 10116

The dashed part of the orbit path shows where the satellite is in the earth's shadow,  

DLR